User: anonymous   Login
Location: Unspecified
(0.0000°N, 0.0000°E)
Time: 00:37:29
(UTC+00:00)
Language:

CARTOSAT 2A - Orbit

View from above orbital plane
View from above orbital plane
View from above satellite
View from above satellite

Ground track
Ground track

The orbit data is extracted from the following two-line orbital elements,

1 32783U 08021A   19109.77768303 -.00000251  00000-0 -27122-4 0  9993
2 32783  97.9785 169.7343 0011407 306.0889  53.9242 14.78636501592383
Epoch (UTC): 19 April 2019 18:39:51
Eccentricity: 0.0011407
inclination: 97.9785°
perigee height: 625 km
apogee height: 641 km
right ascension of ascending node: 169.7343°
argument of perigee: 306.0889°
revolutions per day: 14.78636501
mean anomaly at epoch: 53.9242°
orbit number at epoch: 59238

The dashed part of the orbit path shows where the satellite is in the earth's shadow,  

DLR